Weather History for Wrangell, AK

Change the Weather History Date:

Friday, December 21, 2012

  Actual Average Record
Temperature  
Mean Temperature 24 °F -  
Max Temperature 26 °F 34 °F 50 °F (1960)
Min Temperature 23 °F 23 °F 3 °F (1971)
Degree Days  
Heating Degree Days 40    
Moisture  
Dew Point 7 °F    
Average Humidity 45    
Maximum Humidity 50    
Minimum Humidity 40    
Precipitation  
Precipitation 0.00 in - - ()
Sea Level Pressure  
Sea Level Pressure 29.85 in    
Wind  
Wind Speed 16 mph (East)    
Max Wind Speed 20 mph    
Max Gust Speed 30 mph    
Visibility 10 miles    
Events      
Averages and records for this station are not official NWS values.
T = Trace of Precipitation, MM = Missing Value Source: NWS Daily Summary

Daily Weather History Graph

Daily Weather History Graph

Search for Another Location

Airport:

Trip Planner

Search our weather history database for the weather conditions in past years. The results will help you decide how hot, cold, wet, or windy it might be!

Date:

Astronomy

Dec. 21, 2012 Rise Set
Actual Time 8:22 AM AKST 3:13 PM AKST
Civil Twilight 7:34 AM AKST 4:01 PM AKST
Nautical Twilight 6:44 AM AKST 4:51 PM AKST
Astronomical Twilight 5:58 AM AKST 5:37 PM AKST
Moon 11:49 AM AKST (12/21) 1:26 AM AKST (12/21)
Length of Visible Light 8h 27m
Length of Day
6h 50m
Waxing Gibbous, 66% of the Moon is Illuminated
Dec 21
Waxing Gibbous
Dec 28
Full
Jan 4
Last Quarter
Jan 11
New
Jan 18
First Quarter

Hourly Weather History & Observations

Time (AKST) Temp. Windchill Dew Point Humidity Pressure Visibility Wind Dir Wind Speed Gust Speed Precip Events Conditions
12:16 AM 26.6 °F 13.1 °F 8.6 °F 47% 29.83 in 10.0 mi East 19.6 mph - N/A   Clear
12:36 AM 26.6 °F 14.7 °F 6.8 °F 43% 29.83 in 10.0 mi East 15.0 mph - N/A   Clear
12:56 AM 26.6 °F 14.7 °F 8.6 °F 47% 29.84 in 10.0 mi East 15.0 mph 19.6 mph N/A   Clear
1:16 AM 26.6 °F 13.8 °F 8.6 °F 47% 29.84 in 10.0 mi East 17.3 mph 24.2 mph N/A   Clear
1:36 AM 26.6 °F 14.3 °F 8.6 °F 47% 29.84 in 10.0 mi East 16.1 mph 23.0 mph N/A   Scattered Clouds
1:56 AM 26.6 °F 15.2 °F 8.6 °F 47% 29.85 in 10.0 mi East 13.8 mph 18.4 mph N/A   Partly Cloudy
2:16 AM 26.6 °F 14.3 °F 8.6 °F 47% 29.86 in 10.0 mi East 16.1 mph 20.7 mph N/A   Mostly Cloudy
2:36 AM 26.6 °F 14.7 °F 8.6 °F 47% 29.86 in 10.0 mi East 15.0 mph 19.6 mph N/A   Overcast
2:56 AM 26.6 °F 15.2 °F 8.6 °F 47% 29.87 in 10.0 mi East 13.8 mph 18.4 mph N/A   Overcast
3:16 AM 26.6 °F 14.7 °F 8.6 °F 47% 29.87 in 10.0 mi East 15.0 mph 19.6 mph N/A   Overcast
3:36 AM 26.6 °F 14.7 °F 8.6 °F 47% 29.87 in 10.0 mi East 15.0 mph 19.6 mph N/A   Overcast
3:56 AM 26.6 °F 14.7 °F 8.6 °F 47% 29.88 in 10.0 mi East 15.0 mph 21.9 mph N/A   Overcast
4:16 AM 26.6 °F 14.7 °F 8.6 °F 47% 29.88 in 10.0 mi East 15.0 mph 21.9 mph N/A   Overcast
4:36 AM 26.6 °F 13.8 °F 8.6 °F 47% 29.88 in 10.0 mi East 17.3 mph 23.0 mph N/A   Overcast
4:56 AM 26.6 °F 14.3 °F 8.6 °F 47% 29.88 in 10.0 mi East 16.1 mph 24.2 mph N/A   Overcast
5:16 AM 26.6 °F 14.3 °F 8.6 °F 47% 29.88 in 10.0 mi East 16.1 mph 24.2 mph N/A   Overcast
5:36 AM 26.6 °F 15.2 °F 8.6 °F 47% 29.88 in 10.0 mi East 13.8 mph 25.3 mph N/A   Mostly Cloudy
5:56 AM 26.6 °F 15.7 °F 8.6 °F 47% 29.88 in 10.0 mi East 12.7 mph 21.9 mph N/A   Scattered Clouds
6:16 AM 26.6 °F 14.7 °F 8.6 °F 47% 29.88 in 10.0 mi East 15.0 mph 23.0 mph N/A   Mostly Cloudy
6:36 AM 26.6 °F 14.7 °F 8.6 °F 47% 29.87 in 10.0 mi East 15.0 mph 23.0 mph N/A   Mostly Cloudy
6:56 AM 26.6 °F 13.4 °F 8.6 °F 47% 29.87 in 10.0 mi East 18.4 mph 24.2 mph N/A   Mostly Cloudy
7:16 AM 26.6 °F 13.8 °F 6.8 °F 43% 29.87 in 10.0 mi East 17.3 mph 24.2 mph N/A   Scattered Clouds
7:36 AM 26.6 °F 13.4 °F 8.6 °F 47% 29.88 in 10.0 mi East 18.4 mph 28.8 mph N/A   Scattered Clouds
7:56 AM 26.6 °F 14.3 °F 8.6 °F 47% 29.88 in 10.0 mi East 16.1 mph 25.3 mph N/A   Scattered Clouds
8:16 AM 24.8 °F 11.5 °F 6.8 °F 46% 29.88 in 10.0 mi East 17.3 mph 27.6 mph N/A   Scattered Clouds
8:36 AM 26.6 °F 15.2 °F 8.6 °F 47% 29.89 in 10.0 mi East 13.8 mph 25.3 mph N/A   Scattered Clouds
8:56 AM 24.8 °F 11.9 °F 6.8 °F 46% 29.89 in 10.0 mi East 16.1 mph 23.0 mph N/A   Partly Cloudy
9:16 AM 26.6 °F 14.7 °F 8.6 °F 47% 29.89 in 10.0 mi East 15.0 mph 23.0 mph N/A   Partly Cloudy
9:36 AM 26.6 °F 14.7 °F 8.6 °F 47% 29.89 in 10.0 mi East 15.0 mph 20.7 mph N/A   Partly Cloudy
9:56 AM 24.8 °F 11.1 °F 8.6 °F 50% 29.89 in 10.0 mi East 18.4 mph 23.0 mph N/A   Partly Cloudy
10:16 AM 26.6 °F 13.8 °F 6.8 °F 43% 29.88 in 10.0 mi East 17.3 mph 26.5 mph N/A   Partly Cloudy
10:36 AM 26.6 °F 14.3 °F 8.6 °F 47% 29.87 in 10.0 mi East 16.1 mph 23.0 mph N/A   Partly Cloudy
10:56 AM 26.6 °F 14.3 °F 8.6 °F 47% 29.87 in 10.0 mi East 16.1 mph 26.5 mph N/A   Partly Cloudy
11:16 AM 26.6 °F 13.4 °F 8.6 °F 47% 29.86 in 10.0 mi East 18.4 mph 24.2 mph N/A   Clear
11:36 AM 26.6 °F 14.7 °F 8.6 °F 47% 29.86 in 10.0 mi East 15.0 mph 23.0 mph N/A   Clear
11:56 AM 26.6 °F 13.8 °F 6.8 °F 43% 29.87 in 10.0 mi ESE 17.3 mph 25.3 mph N/A   Clear
12:16 PM 26.6 °F 14.7 °F 8.6 °F 47% 29.87 in 10.0 mi East 15.0 mph 23.0 mph N/A   Clear
12:36 PM 26.6 °F 15.7 °F 6.8 °F 43% 29.88 in 10.0 mi ESE 12.7 mph 17.3 mph N/A   Clear
12:56 PM 26.6 °F 15.2 °F 8.6 °F 47% 29.87 in 10.0 mi East 13.8 mph 18.4 mph N/A   Clear
1:16 PM 26.6 °F 15.7 °F 8.6 °F 47% 29.87 in 10.0 mi East 12.7 mph - N/A   Clear
1:36 PM 26.6 °F 15.2 °F 8.6 °F 47% 29.86 in 10.0 mi East 13.8 mph 18.4 mph N/A   Clear
1:56 PM 26.6 °F 15.7 °F 6.8 °F 43% 29.85 in 10.0 mi East 12.7 mph 18.4 mph N/A   Clear
2:16 PM 26.6 °F 13.8 °F 6.8 °F 43% 29.85 in 10.0 mi East 17.3 mph 28.8 mph N/A   Clear
2:36 PM 26.6 °F 13.8 °F 6.8 °F 43% 29.83 in 10.0 mi East 17.3 mph 29.9 mph N/A   Clear
2:56 PM 26.6 °F 14.3 °F 6.8 °F 43% 29.84 in 10.0 mi ENE 16.1 mph 21.9 mph N/A   Clear
3:16 PM 26.6 °F 13.4 °F 6.8 °F 43% 29.83 in 10.0 mi East 18.4 mph 25.3 mph N/A   Clear
3:36 PM 24.8 °F 11.1 °F 6.8 °F 46% 29.83 in 10.0 mi ENE 18.4 mph 24.2 mph N/A   Clear
3:56 PM 24.8 °F 11.9 °F 6.8 °F 46% 29.83 in 10.0 mi East 16.1 mph 27.6 mph N/A   Clear
4:16 PM 24.8 °F 11.9 °F 6.8 °F 46% 29.82 in 10.0 mi East 16.1 mph 27.6 mph N/A   Clear
4:36 PM 24.8 °F 12.4 °F 5.0 °F 43% 29.83 in 10.0 mi East 15.0 mph 24.2 mph N/A   Clear
4:56 PM 24.8 °F 11.1 °F 6.8 °F 46% 29.82 in 10.0 mi East 18.4 mph 25.3 mph N/A   Clear
5:16 PM 24.8 °F 11.5 °F 5.0 °F 43% 29.82 in 10.0 mi East 17.3 mph 27.6 mph N/A   Clear
5:36 PM 24.8 °F 10.7 °F 6.8 °F 46% 29.82 in 10.0 mi East 19.6 mph 29.9 mph N/A   Clear
5:56 PM 24.8 °F 11.9 °F 5.0 °F 43% 29.83 in 10.0 mi East 16.1 mph 23.0 mph N/A   Clear
6:16 PM 24.8 °F 12.9 °F 5.0 °F 43% 29.83 in 10.0 mi East 13.8 mph 24.2 mph N/A   Clear
6:36 PM 24.8 °F 12.4 °F 5.0 °F 43% 29.83 in 10.0 mi East 15.0 mph 20.7 mph N/A   Clear
6:56 PM 24.8 °F 12.4 °F 3.2 °F 40% 29.83 in 10.0 mi East 15.0 mph 25.3 mph N/A   Clear
7:16 PM 24.8 °F 12.9 °F 6.8 °F 46% 29.83 in 10.0 mi East 13.8 mph - N/A   Clear
7:36 PM 24.8 °F 12.9 °F 3.2 °F 40% 29.84 in 10.0 mi East 13.8 mph 20.7 mph N/A   Clear
7:56 PM 24.8 °F 11.9 °F 5.0 °F 43% 29.83 in 10.0 mi East 16.1 mph 21.9 mph N/A   Clear
8:16 PM 24.8 °F 14.0 °F 5.0 °F 43% 29.84 in 10.0 mi East 11.5 mph 24.2 mph N/A   Clear
8:36 PM 24.8 °F 11.9 °F 5.0 °F 43% 29.83 in 10.0 mi East 16.1 mph 21.9 mph N/A   Clear
8:56 PM 24.8 °F 11.9 °F 3.2 °F 40% 29.83 in 10.0 mi East 16.1 mph 24.2 mph N/A   Clear
9:16 PM 24.8 °F 11.9 °F 3.2 °F 40% 29.83 in 10.0 mi East 16.1 mph 24.2 mph N/A   Clear
9:36 PM 24.8 °F 12.9 °F 6.8 °F 46% 29.84 in 10.0 mi East 13.8 mph 19.6 mph N/A   Clear
9:56 PM 24.8 °F 12.9 °F 3.2 °F 40% 29.83 in 10.0 mi East 13.8 mph 18.4 mph N/A   Clear
10:16 PM 24.8 °F 11.9 °F 5.0 °F 43% 29.83 in 10.0 mi East 16.1 mph 23.0 mph N/A   Clear
10:36 PM 24.8 °F 11.5 °F 5.0 °F 43% 29.83 in 10.0 mi East 17.3 mph 21.9 mph N/A   Clear
10:56 PM 23.0 °F 9.2 °F 5.0 °F 46% 29.83 in 10.0 mi East 17.3 mph - N/A   Clear
11:16 PM 24.8 °F 11.5 °F 5.0 °F 43% 29.83 in 10.0 mi East 17.3 mph 24.2 mph N/A   Scattered Clouds
11:36 PM 24.8 °F 12.9 °F 6.8 °F 46% 29.83 in 10.0 mi East 13.8 mph 24.2 mph N/A   Mostly Cloudy
11:56 PM 24.8 °F 11.9 °F 6.8 °F 46% 29.83 in 10.0 mi East 16.1 mph 20.7 mph N/A   Scattered Clouds